Skip Page Navigation
NASA JPL Caltech
NASA Logo - Jet Propulsion Laboratory + View the NASA Portal
+ Near-Earth Object (NEO) Program
Search JPL
JPL Home Earth Solar System Stars & Galaxies Technology
JPL Solar System Dynamics
BODIES ORBITS EPHEMERIDES TOOLS PHYSICAL DATA DISCOVERY FAQ SITE MAP
JPL Small-Body Database Browser
Search: [ help ]  
234145 (2000 EW70)
Classification: Aten [NEO, PHA]          SPK-ID: 2234145
Ephemeris | Orbit Diagram | Orbital Elements | Physical Parameters | Discovery Circumstances | Close-Approach Data ]

[ hide orbit diagram ]
Orbit Diagram
Note: Make sure you have Java enabled on your browser to see the applet. This applet is provided as a 3D orbit visualization tool. The applet was implemented using 2-body methods, and hence should not be used for determining accurate long-term trajectories (over several years or decades) or planetary encounter circumstances. For accurate long-term ephemerides, please instead use our Horizons system.
Orbit Viewer

Additional Notes: the orbits shown in the applet are color coded. The planets are white lines, and the asteroid/comet is a blue line. The bright white line indicates the portion of the orbit that is above the ecliptic plane, and the darker portion is below the ecliptic plane. Likewise for the asteroid/comet orbit, the light blue indicates the portion above the ecliptic plane, and the dark blue the portion below the ecliptic plane.

Orbit Viewer applet originally written and kindly provided by Osamu Ajiki (AstroArts), and further modified by Ron Baalke (JPL).


Orbital Elements at Epoch 2456400.5 (2013-Apr-18.0) TDB
Reference: JPL 54 (heliocentric ecliptic J2000)
 Element Value Uncertainty (1-sigma)   Units 
e .3214104794938222 6.6584e-08  
a .9380078069345504 5.5624e-09 AU
q .636522267938768 6.3549e-08 AU
i 5.430736157429556 8.2954e-06 deg
node 178.2447798175495 6.7164e-06 deg
peri 125.5246658887511 6.676e-06 deg
M 56.07333555866489 2.0474e-05 deg
tp 2456348.815300364262
(2013-Feb-25.31530036)
1.842e-05 JED
period 331.8242384457262
0.91
2.9516e-06
8.081e-09
d
yr
n 1.084911704118572 9.6503e-09 deg/d
Q 1.239493345930333 7.3502e-09 AU
  Orbit Determination Parameters
   # obs. used (total)      316  
   # delay obs. used      4  
   # Doppler obs. used      6  
   data-arc span      3656 days (10.01 yr)  
   first obs. used      2000-03-09  
   last obs. used      2010-03-13  
   planetary ephem.      DE405  
   SB-pert. ephem.      SB405-CPV-2  
   condition code      0  
   fit RMS      .57841  
   data source      ORB  
   producer      Otto Matic  
   solution date      2013-Apr-29 15:40:53  

Additional Information
 Earth MOID = .0100678 AU 
 T_jup = 6.348 
[ show covariance matrix ]

Ephemeris | Orbit Diagram | Orbital Elements | Physical Parameters | Discovery Circumstances | Close-Approach Data ]

Physical Parameter Table
Parameter Symbol Value Units Sigma Reference Notes
absolute magnitude H 21.203 mag .81625 54 autocmod 2.5c
rotation period rot_per 33. h n/a Asteroid Lightcurve DataBase (Rev. 2013-May-01) upper-limit; Result based on less than full coverage, so that the period may be wrong by 30 percent or so.
Published Reference List:
[Benner, L.A.M. (2011) http://echo.jpl.nasa.gov/~lance/radar.nea.per iods.html]

234145 (2000 EW70)          Discovered 2000-Mar-09 by LINEAR at Socorro (704)
Reference: 20100330/Numbers.arcLast Updated: 2010-04-05

[ show close-approach data ]
Ephemeris | Orbit Diagram | Orbital Elements | Physical Parameters | Discovery Circumstances | Close-Approach Data ]
ABOUT SSD CREDITS/AWARDS PRIVACY/COPYRIGHT GLOSSARY LINKS
FirstGov 2013-May-22 09:08 UT
(server date/time)  
NASA Home Page
Site Manager:   Donald K. Yeomans
Webmaster  Alan B. Chamberlin